Content
SEND FEEDBACK

Daily
Averages
Monthly
Summary
United States of America

BOONE, COLORADO


Home > North America > United States > Colorado
Elevation: 4430 feet     Latitude: 38 13N     Longitude: 104 14W

WEATHER
 
SELECT A DAY
Number of Records: 190,503;   Date Range: 1/1/95 - 7/26/14
 
SHARE

PRINT THIS DATA

[ ← Previous Day ]
WEATHER ALMANAC - JANUARY 3, 2013
[ Next Day → ]
[ °C ]   °F
Weather ElementAverageHighLow
Temperature19.4 °F37.9 °F (1:53 pm)3.9 °F (11:53 pm)
Dewpoint-3.3 °F1 °F (1:53 am)-9.9 °F (11:53 pm)
Humidity41.7 %67 % (2:53 am)16 % (1:53 pm)
Barometer30.40 in30.51 in (7:53 am)30.20 in (4:53 pm)
Wind Speed4.6 mph9.2 mph (9:53 am)
Weather ElementAverage
Visibility10 mi
Wind DirectionS (184.3 °)

Weather ElementTotal
Precipitation---
Heating Degree Days44.1 (Base 65)
Averaged from 23 records on January 3, 2013
WEATHER CONDITIONS BREAKOUT
WIND DIRECTION BREAKOUT
WEATHER BY HOUR - JANUARY 3, 2013
[ °C ]   °F
Local TimeTemperatureDewpointHumidityBarometerVisibilityWind DirectionWind SpeedGust SpeedPrecipitationEventsConditions
1:53 AM10.9 °F1.0 °F64 %30.44 in10.0 miWSW (250°)5.8 mphClear
2:53 AM10.0 °F1.0 °F67 %30.45 in10.0 miCalmClear
3:53 AM10.0 °F1.0 °F67 %30.45 in10.0 miWest (280°)6.9 mphClear
4:53 AM9.0 °F0.0 °F67 %30.46 in10.0 miWest (280°)8.1 mphClear
5:53 AM10.0 °F0.0 °F64 %30.48 in10.0 miWest (260°)8.1 mphClear
6:53 AM7.0 °F-2.0 °F67 %30.50 in10.0 miWSW (250°)3.5 mphClear
7:53 AM9.0 °F-2.0 °F61 %30.51 in9.0 miNW (310°)8.1 mphClear
8:53 AM17.1 °F1.0 °F50 %30.50 in10.0 miWest (280°)5.8 mphClear
9:53 AM23.0 °F1.0 °F39 %30.47 in10.0 miWNW (290°)9.2 mphClear
10:53 AM28.9 °F1.0 °F30 %30.43 in10.0 miNW (310°)3.5 mphClear
11:53 AM33.1 °F0.0 °F24 %30.38 in10.0 miWNW (290°)8.1 mphClear
12:53 PM36.0 °F-2.0 °F20 %30.32 in10.0 miWNW (290°)4.6 mphClear
1:53 PM37.9 °F-5.1 °F16 %30.30 in10.0 miEast (90°)3.5 mphClear
2:53 PM37.9 °F-5.1 °F16 %30.30 in10.0 miESE (110°)6.9 mphClear
3:53 PM37.0 °F-6.0 °F16 %30.30 in10.0 miESE (120°)6.9 mphClear
4:53 PM32.0 °F-5.8 °F20 %30.20 in10.0 miSE (130°)4.6 mphClear
5:53 PM23.0 °F-7.1 °F27 %30.38 in10.0 miEast (100°)4.6 mphClear
6:53 PM19.0 °F-7.1 °F31 %30.41 in10.0 miCalmClear
7:53 PM14.0 °F-8.0 °F37 %30.43 in10.0 miNorth (350°)3.5 mphClear
8:53 PM12.0 °F-9.0 °F39 %30.41 in10.0 miWSW (250°)3.5 mphClear
9:53 PM14.0 °F-6.0 °F41 %30.39 in10.0 miCalmClear
10:53 PM12.0 °F-6.0 °F44 %30.38 in10.0 miCalmClear
11:53 PM3.9 °F-9.9 °F53 %30.39 in10.0 miCalmClear
Hourly data recorded from KPUB, located miles away from Boone, Colorado







STORIES FROM OUR PARTNERS